Alsosag, Hungary

7:27 AM CET on February 25, 2017 (GMT +0100)
Papa

Weather History for LHPA - June, 2014

Change the Weather History Date:

Saturday, June 7, 2014

  Actual Average Record
Temperature  
Mean Temperature 67 °F -  
Max Temperature 84 °F - - ()
Min Temperature 50 °F - - ()
Cooling Degree Days 2    
Growing Degree Days 17 (Base 50)    
Moisture  
Dew Point 55 °F    
Average Humidity 65    
Maximum Humidity 94    
Minimum Humidity 37    
Precipitation  
Precipitation 0.00 in - - ()
Sea Level Pressure  
Sea Level Pressure 30.08 in    
Wind  
Wind Speed 2 mph ()    
Max Wind Speed 4 mph    
Max Gust Speed -    
T = Trace of Precipitation, MM = Missing Value Source: Averaged Metar Reports

Daily Weather History Graph

Daily Weather History Graph

Search for Another Location

Airport or City:

Trip Planner

Search our weather history database for the weather conditions in past years. The results will help you decide how hot, cold, wet, or windy it might be!

Date:

Astronomy

Jun. 07, 2014 Rise Set
Actual Time 4:55 AM CEST 8:42 PM CEST
Civil Twilight 4:15 AM CEST 9:22 PM CEST
Nautical Twilight 3:22 AM CEST 10:16 PM CEST
Astronomical Twilight 2:04 AM CEST 11:34 PM CEST
Moon 2:20 PM CEST (6/7) 1:32 AM CEST (6/7)
Length of Visible Light 17h 06m
Length of Day
15h 47m
Waxing Gibbous, 65% of the Moon is Illuminated
Jun 7
Waxing Gibbous
Jun 13
Full
Jun 19
Last Quarter
Jun 27
New
Jul 5
First Quarter

Hourly Weather History & Observations

Time (CEST) Temp. Heat Index Dew Point Humidity Pressure Visibility Wind Dir Wind Speed Gust Speed Precip Events Conditions
12:15 AM 55.4 °F - 53.6 °F 94% 30.09 in - SSE 2.2 mph - N/A   Clear
12:45 AM 55.4 °F - 51.8 °F 88% 30.09 in - SSE 2.2 mph - N/A   Clear
1:15 AM 53.6 °F - 51.8 °F 94% 30.09 in - Calm Calm - N/A   Clear
1:45 AM 53.6 °F - 51.8 °F 94% 30.09 in - SE 2.2 mph - N/A   Clear
2:15 AM 51.8 °F - 50.0 °F 94% 30.06 in - SE 2.2 mph - N/A   Clear
2:45 AM 51.8 °F - 50.0 °F 94% 30.06 in - SSE 2.2 mph - N/A   Clear
3:15 AM 51.8 °F - 50.0 °F 94% 30.06 in - SSE 2.2 mph - N/A   Clear
3:45 AM 51.8 °F - 50.0 °F 94% 30.06 in - SE 2.2 mph - N/A   Clear
4:45 AM 50.0 °F - 48.2 °F 94% 30.06 in - Calm Calm - N/A   Clear
5:15 AM 50.0 °F - 48.2 °F 94% 30.06 in - SE 2.2 mph - N/A   Clear
5:45 AM 51.8 °F - 50.0 °F 94% 30.06 in - Calm Calm - N/A   Clear
6:15 AM 55.4 °F - 51.8 °F 88% 30.09 in - Calm Calm - N/A   Clear
6:45 AM 59.0 °F - 51.8 °F 77% 30.09 in - Calm Calm - N/A   Clear
7:15 AM 62.6 °F - 53.6 °F 72% 30.09 in - Calm Calm - N/A   Clear
7:45 AM 68.0 °F - 53.6 °F 60% 30.09 in - Calm Calm - N/A   Clear
8:15 AM 69.8 °F - 53.6 °F 56% 30.09 in - Calm Calm - N/A   Clear
8:45 AM 71.6 °F - 53.6 °F 53% 30.09 in - SSE 2.2 mph - N/A   Clear
9:15 AM 73.4 °F - 53.6 °F 50% 30.09 in - WSW 2.2 mph - N/A   Clear
9:45 AM 75.2 °F - 53.6 °F 47% 30.09 in - WSW 2.2 mph - N/A   Clear
10:15 AM 77.0 °F - 51.8 °F 41% 30.09 in - SW 2.2 mph - N/A   Clear
10:45 AM 78.8 °F - 53.6 °F 42% 30.09 in - East 2.2 mph - N/A   Clear
11:15 AM 78.8 °F - 53.6 °F 42% 30.09 in - East 2.2 mph - N/A   Clear
11:45 AM 78.8 °F - 53.6 °F 42% 30.09 in - ENE 2.2 mph - N/A   Clear
12:15 PM 80.6 °F 80.5 °F 55.4 °F 42% 30.09 in - SSE 2.2 mph - N/A   Clear
12:45 PM 80.6 °F 80.3 °F 53.6 °F 39% 30.09 in - NW 4.5 mph - N/A   Clear
1:15 PM 80.6 °F 80.5 °F 55.4 °F 42% 30.09 in - SSW 4.5 mph - N/A   Clear
1:45 PM 82.4 °F 81.4 °F 53.6 °F 37% 30.09 in - WSW 4.5 mph - N/A   Clear
2:15 PM 82.4 °F 81.7 °F 55.4 °F 39% 30.09 in - NNE 2.2 mph - N/A   Clear
2:45 PM 82.4 °F 81.7 °F 55.4 °F 39% 30.06 in - South 4.5 mph - N/A   Clear
4:15 PM 82.4 °F 81.7 °F 55.4 °F 39% 30.06 in - West 4.5 mph - N/A   Clear
4:45 PM 82.4 °F 81.7 °F 55.4 °F 39% 30.06 in - WNW 4.5 mph - N/A   Clear
5:15 PM 84.2 °F 83.0 °F 55.4 °F 37% 30.06 in - Calm Calm - N/A   Clear
5:45 PM 82.4 °F 82.0 °F 57.2 °F 42% 30.06 in - West 4.5 mph - N/A   Clear
6:15 PM 82.4 °F 82.0 °F 57.2 °F 42% 30.06 in - WSW 2.2 mph - N/A   Clear
7:15 PM 80.6 °F 80.8 °F 57.2 °F 45% 30.06 in - West 4.5 mph - N/A   Clear
7:45 PM 78.8 °F - 60.8 °F 54% 30.06 in - WNW 4.5 mph - N/A   Clear
8:15 PM 77.0 °F - 60.8 °F 57% 30.06 in - NW 2.2 mph - N/A   Clear
8:45 PM 73.4 °F - 60.8 °F 65% 30.06 in - Calm Calm - N/A   Clear
9:15 PM 69.8 °F - 59.0 °F 68% 30.09 in - ENE 2.2 mph - N/A   Clear
9:45 PM 68.0 °F - 60.8 °F 78% 30.09 in - SE 2.2 mph - N/A   Clear
10:15 PM 64.4 °F - 59.0 °F 83% 30.09 in - ESE 2.2 mph - N/A   Clear
10:45 PM 62.6 °F - 59.0 °F 88% 30.09 in - Calm Calm - N/A   Clear
11:15 PM 62.6 °F - 59.0 °F 88% 30.09 in - SE 2.2 mph - N/A   Clear
11:45 PM 62.6 °F - 59.0 °F 88% 30.09 in - SE 2.2 mph - N/A   Clear